Tracking 27420 objects as of 29-May-2023
HD Live streaming from Space Station
objects crossing your sky now

FLOCK 1C 5

Track FLOCK 1C 5 now!
10-day predictions
FLOCK 1C 5 is classified as:


NORAD ID: 40038
Int'l Code: 2014-033AE
Perigee: 568.0 km
Apogee: 583.1 km
Inclination: 98.0 °
Period: 96.0 minutes
Semi major axis: 6946 km
RCS: Unknown
Launch date: June 19, 2014
Source: United States (US)
Launch site: Orenburg, Russia (OREN)
Your satellite tracking list
Your tracking list is empty




NASA's NSSDC Master Catalog

Two Line Element Set (TLE):
1 40038U 14033AE  23148.14660642  .00007657  00000-0  62769-3 0  9991
2 40038  98.0491 110.1658 0010831 338.8551  21.2222 14.99512652485525
Source of the keplerian elements: AFSPC